EXACTVIEW-1 (ADS-1B)

Last updated on Thu Nov 21 2024 00:02:27 GMT+0000 (Coordinated Universal Time)

1 38709U 12039C 24325.24273066 .00000304 00000+0 15078-3 0 9998 2 38709 98.9518 60.0462 0011339 30.7496 329.4345 14.24649578640979
UTC large
Height (km)
Speed (km/s)
/
Latitude / Longitude
Inclination (degrees)
Orbital Period (minutes)
Azimuth
Elevation
Range (km)
Doppler Factor

Next 0 passes for location: London (51.5072 / 0.1276)

Sorry there are no passes over London.